This is the latest recevied weather packets stored in our database for station/object CE4JVU-10. If no packets are shown the sender has not sent any weather packets the latest 10 day(s).
| Time | Temp. | Humidity | Pressure | Rain* | Wind** | Luminosity | Snow |
|---|---|---|---|---|---|---|---|
| 1787601997 | 18.89° C | 61% | 984.3 hPa | - | - | - | - |
| 1787601097 | 18.89° C | 59% | 983.8 hPa | - | - | - | - |
| 1787600197 | 18.89° C | 60% | 982.8 hPa | - | - | - | - |
| 1787599297 | 18.33° C | 62% | 982.9 hPa | - | - | - | - |
| 1787598397 | 17.78° C | 64% | 982.4 hPa | - | - | - | - |
| 1787597497 | 17.22° C | 64% | 983.3 hPa | - | - | - | - |
| 1787596597 | 17.78° C | 63% | 983.9 hPa | - | - | - | - |
| 1787595696 | 16.67° C | 65% | 982.9 hPa | - | - | - | - |
| 1787594796 | 16.67° C | 64% | 983.4 hPa | - | - | - | - |
| 1787593896 | 16.67° C | 64% | 983 hPa | - | - | - | - |
| 1787592996 | 16.67° C | 64% | 983.4 hPa | - | - | - | - |
| 1787592096 | 16.67° C | 66% | 983.4 hPa | - | - | - | - |
| 1787591196 | 16.67° C | 65% | 983.8 hPa | - | - | - | - |
| 1787590296 | 16.67° C | 64% | 984.1 hPa | - | - | - | - |
| 1787589396 | 16.67° C | 64% | 984 hPa | - | - | - | - |
| 1787588496 | 16.11° C | 65% | 984.3 hPa | - | - | - | - |
| 1787587595 | 16.67° C | 64% | 984.2 hPa | - | - | - | - |
| 1787586695 | 16.11° C | 65% | 984.4 hPa | - | - | - | - |
| 1787585795 | 16.67° C | 63% | 984.1 hPa | - | - | - | - |
| 1787584893 | 16.67° C | 63% | 984 hPa | - | - | - | - |
| 1787583993 | 16.11° C | 64% | 983.7 hPa | - | - | - | - |
| 1787583093 | 16.11° C | 64% | 983.6 hPa | - | - | - | - |
| 1787582193 | 16.67° C | 64% | 983.1 hPa | - | - | - | - |
| 1787581292 | 16.67° C | 63% | 983 hPa | - | - | - | - |
| 1787580396 | 17.22° C | 62% | 983.2 hPa | - | - | - | - |
* Rain since midnight (hover to see other rain measurements)
** Current wind speed in m/s (hover to see current wind gust speed)